Location: B�di�
(14.6834°N, 3.1047°W)
Time: 14:00:53
(UTC+00:00)

SL-16 R/B - Pass Details

Date: 24 January 2020
Orbit: 841 x 848 km, 71.0° (Epoch: 22 February)

Event Time Altitude Azimuth Distance (km) Brightness Sun altitude
Rises 19:13:11 0° 353° (N) 3,394 5.3 -16.0°
Reaches altitude 10° 19:15:44 10° 359° (N) 2,458 4.5 -16.6°
Maximum altitude 19:21:07 46° 72° (ENE) 1,114 2.4 -17.9°
Drops below altitude 10° 19:26:29 10° 145° (SE) 2,452 4.4 -19.1°
Sets 19:29:01 0° 151° (SSE) 3,385 5.2 -19.7°
